848  
NZUS43 KILX 210510  
HWRCRS  
 
NWR HOURLY WEATHER ROUNDUP  
NATIONAL WEATHER SERVICE LINCOLN IL  
1200 AM CDT SAT APR 21 2018  
 
 
CITY SKY/WX TMP DP RH WIND PRES REMARKS
 
CHAMPAIGN FAIR 44 24 45 E8 30.40S  
LAWRENCEVILLE FAIR 47 28 47 NE8 30.39R  
PEORIA FAIR 50 25 37 E3 30.40S  
SPRINGFIELD FAIR 47 25 42 E5 30.39S  

 
 
 
CITY SKY/WX TMP DP RH WIND PRES REMARKS
 
BLOOMINGTON FAIR 44 27 51 E10 30.41F  
DANVILLE FAIR 45 27 50 NE8 30.40S  
DECATUR FAIR 41 28 60 E3 30.39F  
EFFINGHAM FAIR 49 28 45 NE5 30.40R  
FLORA FAIR 48 28 46 NE6 30.37S  
GALESBURG FAIR 52 30 42 CALM 30.40S  
JACKSONVILLE PTCLDY 42 27 55 E7 30.38F  
LACON FAIR 47 25 43 E8 30.40F  
LA SALLE FAIR 47 26 44 E5 30.43S  
LINCOLN FAIR 41 31 66 NE5 30.40R  
LITCHFIELD CLOUDY 48 24 39 NE6 30.37S  
 
CITY SKY/WX TMP DP RH WIND PRES REMARKS
 
MACOMB CLOUDY 43 30 59 E5 30.41F  
MATTOON FAIR 43 28 55 E7 30.39R  
MOLINE FAIR 43 31 62 E3 30.40R  
OLNEY FAIR 48 21 35 NE7 30.38S  
PARIS FAIR 44 28 53 NE3 30.41S  
PONTIAC FAIR 43 25 49 E8 30.43S  
QUINCY CLOUDY 48 22 35 E6 30.35F  
RANTOUL FAIR 46 28 50 NE8 30.41S  
ROBINSON FAIR 43 30 60 CALM 30.41S  
TAYLORVILLE FAIR 49 22 35 E10 30.38S  
TERRE HAUTE FAIR 40 31 70 NE3 30.40S  

 
 
 
CITY SKY/WX TMP DP RH WIND PRES REMARKS
 
BURLINGTON CLOUDY 52 21 29 E5 30.37F  
CHICAGO MOCLDY 44 17 33 CALM 30.44R  
DES MOINES CLOUDY 52 25 35 E9 30.35F  
EVANSVILLE FAIR 48 32 53 NE9 30.37S  
INDIANAPOLIS FAIR 47 24 40 E7 30.41S  
KANSAS CITY CLOUDY 53 24 32 E13 30.26R  
MILWAUKEE FAIR 40 17 39 CALM 30.45S  
ST LOUIS PTCLDY 49 26 41 E5 30.35F  

 
 
 
 
CLICK HERE TO GO TO PREVIOUS BULLETINS.

The Nexlab IL Page Main Text Page